Location: Invercargill
(46.4000°S, 168.3500°E)
Time: 18:14:15
(UTC+13:00)

Cosmos 2322 - Pass Details

Date: 06 October 2021
Orbit: 840 x 855 km, 71.0° (Epoch: 17 October)

Event Time Altitude Azimuth Distance (km) Brightness Sun altitude
Rises 23:22:10 0° 214° (SW) 3,436 8.0 -30.6°
Reaches altitude 10° 23:24:48 10° 222° (SW) 2,496 7.0 -30.8°
Maximum altitude 23:29:55 35° 285° (WNW) 1,361 4.8 -31.4°
Enters shadow 23:30:00 35° 287° (WNW) 1,362 4.8 -31.4°
